SCP
0 0 0 0 0 0 0 0 0 0 0 0 0 0 0 0 0 0 0 0 0 0 0 0 0 0 0 0 0 0 0 0 0 0 1 1 1 1 1 1 1 1 1
0 0 0 0 0 0 0 0 0 0 0 0 0 0 0 0 0 0 0 0 0 0 0 0 0 0 0 0 0 0 0 0 0 0 1 1 1 1 1 1 1 1 1
0 0 0 0 0 0 0 0 0 0 0 0 0 0 0 0 0 0 0 0 0 0 0 0 0 0 0 0 0 0 0 0 0 0 1 1 1 1 1 1 1 1 1
0 0 0 0 0 0 0 0 0 0 0 0 0 0 0 0 0 0 0 0 0 0 0 0 0 0 0 0 0 0 0 0 0 0 1 1 1 1 1 1 1 1 1
0 0 0 0 0 0 0 0 0 0 0 0 0 0 0 0 0 0 0 0 0 0 0 0 0 0 0 0 0 0 0 0 0 0 1 1 1 1 1 1 1 1 1
0 0 0 0 0 0 0 0 0 0 0 0 0 0 0 0 0 0 0 0 0 0 0 0 0 0 0 0 0 0 0 0 0 0 1 1 1 1 1 1 2 2 2
0 0 0 0 0 0 0 0 0 0 0 0 0 0 0 0 0 0 0 0 0 0 0 0 0 0 0 0 0 0 0 0 0 0 1 1 1 1 1 1 2 3 3
0 0 0 0 0 0 0 0 0 0 0 0 0 0 0 0 0 0 0 0 0 0 0 0 0 0 0 0 0 0 0 0 0 0 0 1 1 1 1 1 2 3 3
0 0 0 0 0 0 0 0 0 0 0 0 0 0 0 0 0 0 0 0 0 0 0 0 0 0 0 0 0 0 0 0 0 0 1 1 1 2 2 1 2 2 3
0 0 0 0 0 0 0 0 0 0 0 0 0 0 0 0 0 0 0 0 0 0 0 0 0 0 0 0 0 0 0 0 0 0 0 1 1 2 2 2 2 2 2
0 0 0 0 0 0 0 0 0 0 0 0 0 0 0 0 0 0 0 0 0 0 0 0 0 0 0 0 0 0 0 0 0 0 0 1 1 1 2 2 2 2 2
0 0 0 0 0 0 0 0 0 0 0 0 0 0 0 0 0 0 0 0 0 0 0 0 0 0 0 0 0 0 0 0 0 0 0 0 1 1 1 1 2 2 2
0 0 0 0 0 0 0 0 0 0 0 0 0 0 0 0 0 0 0 0 0 0 0 0 0 0 0 0 0 0 0 0 0 0 0 0 0 1 1 1 1 2 2
0 0 0 0 0 0 0 0 0 0 0 0 0 0 0 0 0 0 0 0 0 0 0 0 0 0 0 0 0 0 0 0 0 0 0 0 0 0 0 1 1 1 1
0 0 0 0 0 0 0 0 0 0 0 0 0 0 0 0 0 0 0 0 0 0 0 0 0 0 0 0 0 0 0 0 0 0 0 0 0 0 0 0 1 1 1
0 0 0 0 0 0 0 0 0 0 0 0 0 0 0 0 0 0 0 0 0 0 0 0 0 0 0 0 0 0 0 0 0 0 0 0 0 0 0 0 1 1 1
0 0 0 0 0 0 0 0 0 0 0 0 0 0 0 0 0 0 0 0 0 0 0 0 0 0 0 0 0 0 0 0 0 0 0 0 0 0 0 0 0 0 0
0 0 0 0 0 0 0 0 0 0 0 0 0 0 0 0 0 0 0 0 0 0 0 0 0 0 0 0 0 0 0 0 0 0 0 0 0 0 0 0 0 0 0
0 0 0 0 0 0 0 0 0 0 0 0 0 0 0 0 0 0 0 0 0 0 0 0 0 0 0 0 0 0 0 0 0 0 0 0 0 0 0 0 0 0 0
0 0 0 0 0 0 0 0 0 0 0 0 0 0 0 0 0 0 0 0 0 0 0 0 0 0 0 0 0 0 0 0 0 0 0 0 0 0 0 0 0 0 0
0 0 0 0 0 0 0 0 0 0 0 0 0 0 0 0 0 0 0 0 0 0 0 0 0 0 0 0 0 0 0 0 0 0 0 0 0 0 0 0 0 0 0
0 0 0 0 0 0 0 0 0 0 0 0 0 0 0 0 0 0 0 0 0 0 0 0 0 0 0 0 0 0 0 0 0 0 0 0 0 0 0 0 0 0 0
0 0 0 0 0 0 0 0 0 0 0 0 0 0 0 0 0 0 0 0 0 0 0 0 0 0 0 0 0 0 0 0 0 0 0 0 0 0 0 0 0 0 0
0 0 0 0 0 0 0 0 0 0 0 0 0 0 0 0 0 0 0 0 0 0 0 0 0 0 0 0 0 0 0 0 0 0 0 0 0 0 0 0 0 0 0
0 0 0 0 0 0 0 0 0 0 0 0 0 0 0 0 0 0 0 0 0 0 0 0 0 0 0 0 0 0 0 0 0 0 0 0 0 0 0 0 0 0 0
0 0 0 0 0 0 0 0 0 0 0 0 0 0 0 0 0 0 0 0 0 0 0 0 0 0 0 0 0 0 0 0 0 0 0 0 0 0 0 0 0 0 0
Wind_Speed
6 6 4 4 4 3 3 2 2 2 3 4 4 6 7 7 8 8 6 11 14 16 18 18 19 20 21 22 22 23 23 24 25 26 27 28 29 30 30 31 32 32 32
7 6 6 5 5 4 3 3 3 3 4 4 6 7 8 8 8 9 8 9 12 14 16 17 19 20 21 22 22 23 24 25 26 27 28 29 29 30 31 32 33 33 33
9 8 6 6 5 5 5 4 5 4 4 5 7 8 7 9 9 10 9 8 8 11 14 16 18 19 21 22 22 23 24 25 26 28 29 30 31 31 32 33 33 34 35
11 9 7 7 6 6 5 5 5 5 5 6 6 6 7 8 10 10 9 9 8 8 10 14 17 19 20 21 22 23 24 26 27 28 29 31 32 32 33 34 34 35 36
13 10 8 7 8 7 6 6 5 6 6 6 7 7 8 9 9 9 10 10 9 9 9 11 16 18 19 20 22 23 25 26 27 29 30 31 33 33 34 35 36 36 36
14 12 9 10 9 8 7 7 8 7 6 6 7 8 9 9 9 9 10 9 9 10 10 11 10 11 17 19 21 23 25 26 28 29 31 32 33 34 35 36 37 37 38
15 14 10 11 10 9 10 10 8 9 7 6 7 8 9 10 9 8 8 8 9 10 10 11 10 10 9 17 20 22 24 27 28 30 31 33 34 35 36 37 37 38 38
16 14 15 11 12 10 11 11 10 7 7 6 6 6 6 6 7 7 8 9 10 9 10 11 12 12 11 10 14 22 24 27 29 30 32 34 35 36 37 37 37 39 39
18 17 17 14 13 12 11 12 12 12 9 8 7 6 6 5 4 6 9 9 9 9 10 11 13 13 14 12 13 17 23 26 29 31 33 34 35 36 37 38 38 40 39
19 19 18 17 15 13 13 12 13 11 11 9 8 9 9 7 6 6 6 8 10 11 12 11 12 13 14 12 14 21 25 27 29 32 33 35 36 36 36 37 37 38 36
20 20 19 17 16 14 15 14 13 13 11 11 9 8 9 9 11 9 10 10 10 10 10 12 11 12 13 13 12 17 24 27 29 32 33 35 36 36 36 36 37 37 35
15 21 20 18 17 15 16 15 14 15 13 13 10 9 9 8 8 9 11 12 12 11 12 11 11 12 11 12 16 22 25 28 30 31 32 34 35 36 35 36 35 35 34
14 19 20 19 17 17 16 15 15 15 15 15 13 10 10 10 10 10 11 12 14 13 14 12 11 11 11 11 13 21 23 27 29 31 32 32 33 34 34 34 34 34 33
15 17 20 20 20 18 17 16 14 14 13 14 14 14 10 10 10 10 11 11 13 13 14 15 11 11 11 12 15 22 19 26 29 30 31 32 33 33 32 33 33 32 32
14 19 20 20 20 19 18 17 13 15 14 14 14 14 13 11 10 10 11 11 12 14 15 15 13 12 11 12 16 16 17 23 29 30 31 32 32 32 32 31 31 30 30
17 18 19 20 20 19 18 17 14 14 15 14 12 13 13 11 10 11 11 11 11 13 15 13 14 14 15 14 19 18 18 26 29 30 30 31 31 31 31 30 30 30 29
18 19 18 18 19 19 18 17 17 16 16 15 14 14 16 14 11 11 11 11 12 12 15 16 15 15 19 18 17 16 16 17 16 26 29 30 30 30 29 29 29 29 28
18 18 18 18 19 19 19 19 19 17 17 17 16 16 16 12 15 13 11 13 12 13 15 18 16 15 19 18 18 18 16 14 15 23 28 29 29 29 29 28 28 28 27
18 18 19 19 20 19 19 19 19 18 17 17 16 16 16 15 15 13 14 13 12 12 14 15 17 15 15 14 16 16 17 15 15 18 23 25 26 27 27 27 27 26 26
18 18 19 19 19 19 18 18 18 17 17 16 16 16 16 16 16 15 13 14 14 14 15 15 15 14 14 14 14 13 14 13 13 14 17 18 22 25 26 25 25 25 24
17 18 18 19 19 17 16 17 17 16 16 16 16 16 16 18 20 17 13 13 14 13 13 13 13 13 13 12 12 12 14 14 14 13 13 13 13 13 14 18 20 21 22
17 17 19 19 19 16 22 28 20 16 16 16 15 15 16 18 21 25 25 24 21 16 14 13 13 14 16 15 13 12 13 14 15 11 12 13 12 13 12 11 16 20 21
16 18 18 19 20 21 27 29 30 17 16 15 15 14 12 13 18 15 18 22 22 24 23 17 16 16 16 15 15 16 15 15 16 13 13 15 13 13 12 12 19 21 21
15 16 17 19 19 20 27 29 29 21 16 16 15 15 14 13 13 14 12 14 15 15 16 13 13 15 15 15 14 15 16 16 16 13 12 14 13 13 12 12 16 17 18
14 15 15 17 18 19 26 28 27 15 15 16 15 14 14 14 17 19 14 14 15 13 16 20 21 20 23 23 18 11 12 12 13 12 9 10 11 12 12 11 10 13 15
13 13 14 16 18 17 22 27 28 13 14 13 12 13 19 18 18 19 14 13 14 12 11 11 13 15 14 14 17 11 10 11 12 10 7 7 9 9 9 8 7 8 9
Wind_Direction
201 198 203 202 210 214 225 249 272 301 305 310 307 305 303 299 296 294 292 294 299 303 306 308 311 313 314 314 314 315 315 315 314 313 312 311 308 306 304 301 298 296 293
203 201 205 207 211 215 226 245 263 279 285 288 289 288 287 287 282 282 282 285 283 290 297 302 305 308 309 309 311 312 312 312 311 310 308 306 305 302 300 297 295 292 290
206 204 209 208 209 209 218 231 240 256 267 272 275 278 279 277 276 277 278 277 279 280 285 293 299 302 304 305 306 307 307 308 308 307 305 303 301 299 296 294 292 289 287
206 207 210 211 205 206 216 225 236 247 251 262 271 274 272 270 271 273 272 268 271 278 283 286 293 297 300 301 302 302 303 305 304 304 302 301 298 296 293 291 288 286 284
206 208 213 211 204 208 214 219 229 240 252 259 268 274 271 267 267 267 264 264 265 272 279 284 288 290 294 296 299 301 301 301 301 301 299 298 296 293 291 288 286 283 280
205 209 212 212 206 210 212 214 224 228 245 260 270 271 269 267 264 261 261 260 262 269 275 282 286 286 288 292 296 298 299 300 299 298 296 295 294 291 289 287 283 280 277
205 208 210 210 208 213 215 217 222 231 234 240 260 266 261 253 253 252 254 259 265 271 275 278 282 285 288 290 292 294 296 298 298 296 294 293 291 289 288 285 282 278 275
208 207 211 209 208 213 215 216 217 226 231 225 243 274 278 252 223 240 253 258 267 272 274 277 282 283 286 288 287 291 293 294 295 295 293 292 289 288 286 284 282 279 273
210 209 210 211 210 211 214 212 212 218 227 222 222 243 265 280 298 255 254 259 266 270 275 279 280 282 284 285 287 288 289 292 293 293 292 292 291 288 286 283 282 282 273
212 210 210 211 211 211 215 213 212 216 224 231 221 226 240 260 271 285 260 256 263 270 273 277 281 283 283 283 282 286 288 289 291 292 292 292 292 292 289 287 284 286 275
213 211 210 209 211 212 214 212 210 213 217 227 229 227 233 242 241 251 274 281 276 272 276 280 280 281 282 282 282 283 287 289 290 291 292 294 294 294 293 292 288 287 281
211 212 209 209 209 210 211 211 212 214 217 223 229 233 236 239 242 248 264 277 283 284 284 281 278 277 278 279 281 285 287 288 289 290 292 294 295 294 293 294 293 292 286
212 210 207 208 208 209 208 208 211 215 217 221 225 229 235 241 249 256 265 275 281 285 284 278 273 275 276 277 281 285 286 288 288 289 291 293 294 295 292 293 292 294 292
218 212 208 209 208 206 205 206 210 214 217 221 226 230 236 240 243 248 256 270 280 282 281 281 283 282 282 282 282 287 285 285 286 288 289 291 292 293 292 291 292 293 296
220 215 210 210 209 206 204 203 210 212 215 220 225 229 233 239 241 245 249 254 265 279 283 288 289 288 288 285 284 283 283 285 287 287 288 289 291 292 293 292 293 292 295
223 217 213 210 209 206 204 204 209 213 215 219 223 230 234 238 241 243 246 250 251 261 274 281 286 287 288 284 283 284 283 286 285 286 287 288 289 290 290 291 292 292 292
225 222 217 212 210 207 204 205 208 209 215 221 222 228 234 237 242 244 245 248 250 253 264 275 279 284 286 284 284 283 282 284 284 285 286 286 288 288 288 289 290 290 289
226 223 218 215 212 209 204 205 208 209 213 220 223 227 234 234 239 244 246 249 251 253 260 272 279 282 284 286 286 285 284 283 282 285 286 286 286 286 287 287 286 286 287
226 221 217 216 213 210 206 207 208 209 214 220 223 227 232 233 239 241 244 248 251 254 256 264 273 278 281 282 285 283 283 283 283 283 286 285 285 286 286 285 284 283 283
226 222 219 217 215 212 207 206 207 209 214 220 224 227 231 232 237 242 245 249 252 256 258 261 267 275 279 283 284 286 288 287 286 288 286 285 285 285 283 282 281 280 280
227 223 221 219 216 214 208 204 205 208 214 220 224 227 231 234 236 240 241 246 249 254 260 264 269 276 280 286 287 289 288 290 288 288 288 286 286 283 283 280 278 276 276
227 223 222 220 218 215 214 209 204 208 213 219 224 228 232 238 242 247 252 255 256 260 266 270 276 280 285 288 291 290 290 290 290 290 290 289 287 283 281 277 279 281 278
229 225 223 221 221 219 217 215 211 207 214 218 222 227 230 233 240 245 255 262 266 267 267 269 275 280 286 288 290 289 286 286 287 292 292 287 287 284 283 280 282 279 276
230 228 225 223 223 222 219 219 216 212 218 221 221 224 230 236 238 243 250 256 259 261 263 264 267 273 276 279 280 281 283 284 283 281 281 284 288 288 290 286 282 278 277
234 230 227 224 223 223 220 220 217 216 220 223 223 225 229 237 242 246 250 256 261 261 264 266 266 271 276 282 284 286 285 285 286 289 289 281 287 295 293 286 283 281 279
237 232 230 226 224 224 220 219 216 216 220 222 222 224 230 234 241 246 249 255 262 267 269 273 273 276 279 280 282 277 277 279 284 289 285 280 288 301 297 291 301 304 293